FW6402 Weather Reports


Display with metric or nautical units.
time (UTC)temp
F
wind
direction
speed
MPH
gust
MPH
rain 1hr
in
rain 24hr
in
rain mn
in
humidity
%
barometer
mb
20260906213924 59 265 0.0 0.0 0.00 0.43 0.43 95 1019.4
20260906213422 59 237 0.0 0.0 0.00 0.43 0.43 96 1019.4
20260906212938 59 243 0.0 0.0 0.00 0.43 0.43 96 1019.3
20260906212436 59 244 0.0 0.0 0.00 0.43 0.43 95 1019.4
20260906211935 58 250 0.0 0.0 0.00 0.43 0.43 95 1019.3
20260906211442 59 248 0.0 0.0 0.00 0.43 0.43 95 1019.3
20260906210938 59 248 0.0 0.0 0.00 0.43 0.43 96 1019.3
20260906210435 58 248 0.0 0.0 0.00 0.43 0.43 96 1019.2
20260906205931 58 249 0.0 0.0 0.00 0.43 0.43 96 1019.2
20260906205435 58 248 0.0 0.0 0.00 0.43 0.43 96 1019.2
20260906204933 58 252 0.0 0.0 0.00 0.43 0.43 95 1019.2
20260906204432 58 252 0.0 0.0 0.00 0.43 0.43 95 1019.2
20260906203949 58 252 0.0 0.0 0.00 0.43 0.43 95 1019.2
20260906203426 58 252 0.0 0.0 0.00 0.43 0.43 96 1019.2
20260906202947 58 252 0.0 0.0 0.00 0.43 0.43 95 1019.0
20260906202444 58 252 0.0 1.0 0.01 0.43 0.43 95 1019.0
20260906201942 58 240 0.0 0.0 0.01 0.43 0.43 96 1019.1
20260906201458 58 240 0.0 0.0 0.01 0.43 0.43 96 1019.0
20260906201003 58 240 0.0 1.0 0.01 0.43 0.43 96 1019.0
20260906200439 58 240 0.0 1.0 0.01 0.43 0.43 96 1019.0
20260906195938 58 250 0.0 1.0 0.01 0.43 0.43 95 1019.0
20260906195430 58 215 0.0 1.0 0.01 0.43 0.43 96 1018.9
20260906194938 58 215 0.0 1.0 0.01 0.43 0.43 96 1018.9
20260906194445 58 215 0.0 1.0 0.01 0.43 0.43 96 1019.0
20260906193922 58 213 0.0 1.0 0.01 0.43 0.43 96 1019.0
20260906193420 58 158 0.0 0.0 0.01 0.43 0.43 96 1019.0
20260906192937 57 137 0.0 1.0 0.01 0.43 0.43 96 1018.9
20260906192434 57 229 0.0 2.0 0.00 0.42 0.42 96 1018.9
20260906191941 57 238 0.0 2.0 0.00 0.42 0.42 96 1018.9
20260906191440 57 229 0.0 1.0 0.00 0.42 0.42 96 1018.9
20260906190938 57 211 0.0 1.0 0.01 0.42 0.42 96 1018.9
20260906190436 57 212 0.0 1.0 0.01 0.42 0.42 96 1018.9
20260906185929 57 212 0.0 1.0 0.01 0.42 0.42 96 1018.9
20260906185426 57 219 0.0 1.0 0.01 0.42 0.42 96 1018.8
20260906184947 57 134 0.0 1.0 0.01 0.42 0.42 96 1018.9
20260906184422 57 111 0.0 1.0 0.01 0.42 0.42 96 1018.9
20260906183920 57 158 0.0 1.0 0.02 0.42 0.42 96 1018.9
20260906183438 57 176 0.0 1.0 0.03 0.42 0.42 96 1018.9
20260906182946 56 176 0.0 1.0 0.03 0.42 0.42 96 1018.8
20260906182443 56 84 0.0 1.0 0.04 0.42 0.42 96 1018.9
20260906181941 56 100 0.0 1.0 0.06 0.42 0.42 96 1018.9
20260906181438 56 105 0.0 1.0 0.07 0.42 0.42 96 1018.9
20260906180941 56 105 0.0 1.0 0.08 0.41 0.41 96 1018.8
20260906180438 56 134 0.0 1.0 0.08 0.41 0.41 96 1018.8
20260906175937 56 136 0.0 1.0 0.09 0.41 0.41 96 1018.8
20260906175454 56 137 0.0 1.0 0.10 0.41 0.41 96 1018.6
20260906174930 56 138 0.0 1.0 0.11 0.41 0.41 96 1018.7
20260906174435 56 104 0.0 1.0 0.10 0.40 0.40 96 1018.7
20260906173933 56 103 0.0 2.0 0.11 0.40 0.40 96 1018.7
20260906173431 55 108 1.0 2.0 0.11 0.39 0.39 95 1018.6
20260906172930 56 70 1.0 2.0 0.11 0.39 0.39 95 1018.7
20260906172507 56 157 0.0 0.0 0.09 0.37 0.37 96 1018.7
20260906171946 56 158 0.0 0.0 0.09 0.36 0.36 96 1018.7
20260906171445 56 158 0.0 0.0 0.08 0.35 0.35 96 1018.7
20260906170941 56 158 0.0 0.0 0.07 0.33 0.33 96 1018.6
20260906170507 56 160 0.0 0.0 0.07 0.32 0.32 96 1018.7
20260906165944 56 159 0.0 1.0 0.08 0.33 0.32 96 1018.7
20260906165441 56 161 0.0 1.0 0.08 0.32 0.31 96 1018.6
20260906164936 56 102 0.0 1.0 0.09 0.31 0.30 96 1018.6
20260906164434 55 102 0.0 2.0 0.10 0.31 0.30 95 1018.6
20260906163951 55 68 1.0 2.0 0.10 0.30 0.29 95 1018.6
20260906163424 55 95 0.0 2.0 0.10 0.29 0.28 95 1018.5
20260906162936 55 62 0.0 1.0 0.10 0.29 0.28 95 1018.4
20260906162443 55 109 0.0 2.0 0.11 0.29 0.28 95 1018.4
20260906161940 55 73 1.0 3.0 0.10 0.28 0.27 95 1018.4
20260906161439 55 70 0.0 3.0 0.11 0.28 0.27 95 1018.5
20260906160938 55 70 0.0 1.0 0.11 0.27 0.26 95 1018.4
20260906160436 55 56 0.0 1.0 0.10 0.26 0.25 95 1018.3
20260906155941 55 56 0.0 2.0 0.10 0.25 0.24 95 1018.2
20260906155439 55 56 1.0 2.0 0.08 0.23 0.22 95 1018.4
20260906154954 55 61 1.0 1.0 0.08 0.22 0.21 95 1018.3
20260906154431 55 68 0.0 2.0 0.08 0.21 0.20 95 1018.3
20260906153958 55 56 1.0 2.0 0.08 0.20 0.19 95 1018.3
20260906153452 55 40 0.0 1.0 0.08 0.19 0.18 95 1018.4
20260906152951 55 59 0.0 1.0 0.09 0.19 0.18 95 1018.3
20260906152420 55 60 0.0 1.0 0.08 0.18 0.17 95 1018.2
20260906151947 55 58 0.0 1.0 0.09 0.18 0.17 95 1018.2
20260906151444 55 91 0.0 1.0 0.08 0.17 0.16 95 1018.2
20260906150958 55 100 0.0 1.0 0.07 0.16 0.15 95 1018.1
20260906150435 55 100 0.0 1.0 0.07 0.16 0.15 95 1018.0
20260906145932 55 101 0.0 2.0 0.07 0.15 0.14 95 1018.0
20260906145440 55 101 1.0 2.0 0.07 0.15 0.14 95 1017.9
20260906144936 55 304 0.0 0.0 0.07 0.14 0.13 95 1017.9
20260906144432 55 304 0.0 0.0 0.06 0.13 0.12 95 1017.8
20260906143929 55 304 0.0 0.0 0.05 0.12 0.11 95 1017.8
20260906143420 55 304 0.0 1.0 0.05 0.11 0.10 95 1017.6
20260906142946 55 60 0.0 1.0 0.04 0.10 0.09 95 1017.7
20260906142445 55 68 0.0 0.0 0.04 0.10 0.09 94 1017.8
20260906142007 55 67 0.0 0.0 0.04 0.09 0.08 95 1017.7
20260906141444 55 67 0.0 1.0 0.04 0.09 0.08 94 1017.6
20260906140919 55 67 0.0 1.0 0.05 0.09 0.08 94 1017.5
20260906140437 55 68 0.0 1.0 0.04 0.08 0.07 94 1017.6
20260906135935 55 68 0.0 1.0 0.05 0.08 0.07 94 1017.5
20260906135441 55 67 0.0 2.0 0.06 0.08 0.07 94 1017.6
20260906134939 56 69 1.0 2.0 0.05 0.07 0.06 93 1017.6
20260906134437 56 82 0.0 4.0 0.05 0.07 0.06 94 1017.6
20260906133935 56 59 2.0 2.0 0.05 0.07 0.06 93 1017.5
20260906133432 56 76 0.0 2.0 0.04 0.06 0.05 93 1017.3
20260906132930 56 103 0.0 1.0 0.04 0.06 0.05 93 1017.2
20260906132446 56 107 0.0 2.0 0.04 0.05 0.04 93 1017.2
20260906131936 56 106 1.0 2.0 0.04 0.05 0.04 93 1017.2
20260906131441 56 153 0.0 0.0 0.04 0.05 0.04 92 1017.0
20260906130937 56 155 0.0 0.0 0.03 0.04 0.03 92 1016.9
20260906130434 56 155 0.0 0.0 0.03 0.04 0.03 92 1017.0
20260906125932 56 155 0.0 0.0 0.02 0.03 0.02 92 1017.1
20260906125429 56 155 0.0 1.0 0.01 0.02 0.01 91 1017.1
20260906124922 57 156 0.0 1.0 0.01 0.02 0.01 91 1017.1
20260906124419 57 148 0.0 0.0 0.01 0.02 0.01 91 1017.2
20260906123926 57 148 0.0 0.0 0.01 0.02 0.01 92 1017.3
20260906123424 57 150 0.0 0.0 0.01 0.02 0.01 91 1017.2
20260906122945 56 150 0.0 0.0 0.01 0.02 0.01 91 1017.3
20260906122443 57 150 0.0 0.0 0.00 0.01 0.00 91 1017.3
20260906121920 57 150 0.0 0.0 0.00 0.01 0.00 91 1017.2
20260906121438 57 150 0.0 0.0 0.00 0.01 0.00 91 1017.3
20260906120935 57 148 0.0 0.0 0.00 0.01 0.00 90 1017.4
20260906120433 57 264 0.0 0.0 0.00 0.01 0.00 91 1017.5
20260906115939 57 264 0.0 0.0 0.00 0.01 0.00 90 1017.5
20260906115437 58 264 0.0 0.0 0.00 0.01 0.00 90 1017.5
20260906114954 58 265 0.0 1.0 0.00 0.01 0.00 89 1017.5
20260906114453 58 264 0.0 1.0 0.00 0.01 0.00 88 1017.4
20260906113926 58 329 0.0 0.0 0.00 0.01 0.00 86 1017.4
20260906113437 58 329 0.0 0.0 0.00 0.01 0.00 87 1017.3
20260906112944 58 329 0.0 1.0 0.00 0.01 0.00 86 1017.2
20260906112438 58 329 0.0 1.0 0.00 0.01 0.00 87 1017.2
20260906111936 58 335 0.0 1.0 0.00 0.01 0.00 87 1017.2
20260906111435 58 9 0.0 1.0 0.00 0.01 0.00 87 1017.1
20260906110931 58 37 0.0 1.0 0.00 0.01 0.00 87 1017.1
20260906110457 58 48 0.0 0.0 0.00 0.01 0.00 88 1017.2
20260906105929 58 61 0.0 0.0 0.00 0.01 0.00 89 1017.3
20260906105427 58 63 0.0 0.0 0.00 0.01 0.00 89 1017.2
20260906104925 58 63 0.0 0.0 0.00 0.01 0.00 89 1017.2
20260906104447 58 63 0.0 0.0 0.00 0.01 0.00 89 1017.2
20260906103923 58 62 0.0 0.0 0.00 0.01 0.00 89 1017.2
20260906103422 58 286 0.0 0.0 0.00 0.01 0.00 89 1017.0
20260906102919 58 41 0.0 0.0 0.00 0.01 0.00 89 1017.2
20260906102436 58 41 0.0 0.0 0.00 0.01 0.00 89 1017.2
20260906101934 58 41 0.0 0.0 0.00 0.01 0.00 89 1017.2
20260906101441 58 41 0.0 0.0 0.00 0.01 0.00 89 1017.2
20260906100938 58 40 0.0 0.0 0.00 0.01 0.00 89 1017.2
20260906100435 58 44 0.0 0.0 0.00 0.01 0.00 89 1017.2
20260906095929 58 69 0.0 0.0 0.00 0.01 0.00 89 1017.3
20260906095427 58 69 0.0 0.0 0.00 0.01 0.00 90 1017.3
20260906094924 58 257 0.0 0.0 0.00 0.01 0.00 90 1017.2
20260906094445 58 257 0.0 0.0 0.00 0.01 0.00 90 1017.2
20260906093923 58 257 0.0 0.0 0.00 0.01 0.00 90 1017.2
20260906093421 57 257 0.0 0.0 0.00 0.01 0.00 89 1017.2
20260906092921 58 257 0.0 0.0 0.00 0.01 0.00 89 1017.2
20260906092438 58 257 0.0 0.0 0.00 0.01 0.00 89 1017.3
20260906091946 58 257 0.0 0.0 0.00 0.01 0.00 89 1017.3
20260906091443 58 257 0.0 0.0 0.00 0.01 0.00 89 1017.2
20260906090940 58 258 0.0 0.0 0.00 0.01 0.00 89 1017.2
20260906090432 58 16 0.0 0.0 0.00 0.01 0.00 89 1017.2
20260906085929 58 16 0.0 0.0 0.00 0.01 0.00 89 1017.2
20260906085457 58 15 0.0 0.0 0.00 0.01 0.00 88 1017.1
20260906084935 58 15 0.0 0.0 0.00 0.01 0.00 88 1017.2
20260906084432 58 15 0.0 0.0 0.00 0.01 0.00 88 1017.1
20260906083929 58 17 0.0 0.0 0.00 0.01 0.00 88 1017.2
20260906083452 58 263 0.0 0.0 0.00 0.01 0.00 88 1017.3
20260906082928 58 257 0.0 0.0 0.00 0.01 0.00 87 1017.4
20260906082420 58 183 0.0 0.0 0.00 0.01 0.00 86 1017.3
20260906081947 58 110 0.0 0.0 0.00 0.01 0.00 86 1017.1
20260906081425 59 110 0.0 0.0 0.00 0.01 0.00 85 1017.2
20260906080920 59 110 0.0 0.0 0.00 0.01 0.00 85 1017.2
20260906080506 59 110 0.0 0.0 0.00 0.01 0.00 85 1017.3
20260906075942 59 111 0.0 0.0 0.00 0.01 0.00 84 1017.3
20260906075441 59 108 0.0 0.0 0.00 0.01 0.00 84 1017.2
20260906074919 59 20 0.0 2.0 0.00 0.01 0.00 84 1017.2
20260906074437 59 77 0.0 2.0 0.00 0.01 0.00 84 1017.3
20260906073935 59 78 0.0 1.0 0.00 0.01 0.00 84 1017.3
20260906073435 59 239 0.0 1.0 0.00 0.01 0.00 85 1017.4
20260906072933 59 238 0.0 1.0 0.00 0.01 0.00 85 1017.4
20260906072430 59 240 0.0 1.0 0.00 0.01 0.00 85 1017.2
20260906071948 59 241 0.0 0.0 0.00 0.01 0.00 85 1017.2
20260906071424 59 240 0.0 0.0 0.00 0.01 0.00 85 1017.2
20260906070945 59 240 0.0 0.0 0.00 0.01 0.00 84 1017.3
20260906070443 59 240 0.0 0.0 0.00 0.01 0.00 84 1017.2
20260906065959 59 240 0.0 0.0 0.00 0.01 0.01 84 1017.2
20260906065435 59 240 0.0 0.0 0.00 0.01 0.01 83 1017.2
20260906064933 59 240 0.0 0.0 0.00 0.01 0.01 83 1017.2
20260906064434 59 240 0.0 0.0 0.00 0.01 0.01 84 1017.3
20260906063951 59 240 0.0 0.0 0.00 0.01 0.01 84 1017.4
20260906063433 59 84 0.0 0.0 0.00 0.01 0.01 84 1017.4
20260906062929 59 84 0.0 0.0 0.00 0.01 0.01 84 1017.4
20260906062447 59 84 0.0 0.0 0.00 0.01 0.01 84 1017.3
20260906061947 59 84 0.0 0.0 0.00 0.01 0.01 84 1017.4
20260906061424 59 84 0.0 0.0 0.00 0.01 0.01 83 1017.4
20260906060922 59 84 0.0 0.0 0.00 0.01 0.01 83 1017.3
20260906060419 59 84 0.0 0.0 0.00 0.01 0.01 82 1017.3
20260906055935 59 84 0.0 0.0 0.00 0.01 0.01 82 1017.4
20260906055423 59 84 0.0 0.0 0.00 0.01 0.01 82 1017.4
20260906054936 60 84 0.0 0.0 0.00 0.01 0.01 82 1017.6
20260906054434 60 84 0.0 0.0 0.00 0.01 0.01 82 1017.6
20260906053940 60 84 0.0 1.0 0.00 0.01 0.01 81 1017.7
20260906053437 60 84 0.0 1.0 0.00 0.01 0.01 81 1017.5
20260906052934 60 84 0.0 0.0 0.00 0.01 0.01 81 1017.6
20260906052450 60 84 0.0 2.0 0.00 0.01 0.01 81 1017.7
20260906051950 60 84 1.0 2.0 0.00 0.01 0.01 81 1017.6
20260906051420 60 113 0.0 0.0 0.00 0.01 0.01 81 1017.6
20260906050947 60 113 0.0 1.0 0.00 0.01 0.01 80 1017.6
20260906050420 60 121 0.0 1.0 0.00 0.01 0.01 80 1017.6
20260906045937 60 191 0.0 0.0 0.00 0.01 0.01 80 1017.5
20260906045434 61 96 0.0 0.0 0.00 0.01 0.01 79 1017.5
20260906044941 61 75 0.0 0.0 0.00 0.01 0.01 79 1017.4
20260906044438 61 47 0.0 0.0 0.00 0.01 0.01 79 1017.4
20260906043936 61 47 0.0 0.0 0.00 0.01 0.01 78 1017.5
20260906043434 61 47 0.0 0.0 0.00 0.01 0.01 78 1017.7
20260906042954 61 47 0.0 0.0 0.00 0.01 0.01 77 1017.7
20260906042432 61 47 0.0 0.0 0.00 0.01 0.01 77 1017.7
20260906041948 62 47 0.0 0.0 0.00 0.01 0.01 77 1017.8
20260906041424 62 47 0.0 0.0 0.00 0.01 0.01 76 1017.9
20260906041005 62 47 0.0 0.0 0.00 0.01 0.01 76 1017.9
20260906040422 62 47 0.0 0.0 0.00 0.01 0.01 75 1017.9
20260906035958 63 47 0.0 0.0 0.00 0.01 0.01 74 1017.9
20260906035423 63 47 0.0 0.0 0.00 0.01 0.01 73 1017.7
20260906034921 63 48 0.0 1.0 0.00 0.01 0.01 73 1017.7
20260906034447 63 48 0.0 1.0 0.00 0.01 0.01 73 1017.7
20260906033941 63 48 0.0 0.0 0.00 0.01 0.01 72 1017.7
20260906033440 63 48 0.0 1.0 0.00 0.01 0.01 71 1017.5
20260906032919 64 327 0.0 0.0 0.00 0.01 0.01 71 1017.6
20260906032438 64 327 0.0 0.0 0.00 0.01 0.01 69 1017.4
20260906031936 64 327 0.0 0.0 0.00 0.01 0.01 69 1017.4
20260906031434 64 327 0.0 0.0 0.00 0.01 0.01 68 1017.3
20260906030922 65 327 0.0 0.0 0.00 0.01 0.01 68 1017.3
20260906030419 65 314 0.0 0.0 0.00 0.01 0.01 67 1017.3
20260906030006 66 314 0.0 0.0 0.00 0.01 0.01 64 1017.3
20260906025444 66 314 0.0 1.0 0.00 0.01 0.01 63 1017.3
20260906024939 67 80 0.0 1.0 0.00 0.01 0.01 63 1017.2
20260906024434 67 80 0.0 0.0 0.00 0.01 0.01 61 1017.1
20260906023932 68 80 0.0 0.0 0.00 0.01 0.01 60 1017.1
20260906023431 68 80 0.0 0.0 0.00 0.01 0.01 60 1017.1
20260906022958 68 80 0.0 0.0 0.00 0.01 0.01 59 1017.0
20260906022434 69 80 0.0 1.0 0.00 0.01 0.01 58 1017.1
20260906021951 69 80 0.0 1.0 0.00 0.01 0.01 58 1017.1
20260906021429 69 80 0.0 0.0 0.00 0.01 0.01 59 1017.1
20260906020928 69 80 0.0 0.0 0.00 0.01 0.01 57 1017.1
20260906020425 69 80 0.0 5.0 0.00 0.01 0.01 57 1017.2
20260906015942 70 69 1.0 5.0 0.00 0.01 0.01 56 1017.2
20260906015443 70 85 2.0 5.0 0.00 0.01 0.01 55 1017.3
20260906014941 70 56 1.0 3.0 0.00 0.01 0.01 55 1017.2
20260906014420 71 68 0.0 6.0 0.00 0.01 0.01 55 1017.3
20260906013938 71 68 0.0 6.0 0.00 0.01 0.01 54 1017.2
20260906013433 71 70 1.0 5.0 0.00 0.01 0.01 53 1017.3
20260906012932 72 68 3.0 7.0 0.00 0.01 0.01 52 1017.2
20260906012458 72 15 2.0 7.0 0.00 0.01 0.01 52 1017.3
20260906011934 73 51 1.0 4.0 0.00 0.01 0.01 52 1017.1
20260906011429 73 281 1.0 5.0 0.00 0.01 0.01 52 1017.1
20260906010928 74 74 1.0 3.0 0.00 0.01 0.01 51 1017.1
20260906010436 75 249 0.0 2.0 0.00 0.01 0.01 51 1017.0
20260906005941 75 248 1.0 2.0 0.00 0.01 0.01 50 1017.0
20260906005438 75 25 0.0 2.0 0.00 0.01 0.01 52 1017.0
20260906004936 74 274 0.0 4.0 0.00 0.01 0.01 53 1016.9
20260906004434 73 271 1.0 5.0 0.00 0.01 0.01 53 1017.0
20260906003932 74 257 2.0 4.0 0.00 0.01 0.01 52 1017.1
20260906003439 74 274 1.0 4.0 0.00 0.01 0.01 53 1017.1
20260906002955 73 223 1.0 3.0 0.00 0.01 0.01 54 1017.1
20260906002455 73 254 1.0 3.0 0.00 0.01 0.01 53 1017.1
20260906001926 74 236 1.0 3.0 0.00 0.01 0.01 52 1017.0
20260906001507 74 278 1.0 2.0 0.00 0.01 0.01 52 1017.0
20260906000924 73 265 1.0 5.0 0.00 0.01 0.01 52 1017.0
20260906000422 73 250 1.0 5.0 0.00 0.01 0.01 53 1017.1
20260905235919 73 219 3.0 5.0 0.00 0.01 0.01 52 1017.1
20260905235438 74 281 2.0 4.0 0.00 0.01 0.01 51 1017.0
20260905234935 74 286 0.0 3.0 0.00 0.01 0.01 54 1017.0
20260905234443 74 274 2.0 3.0 0.00 0.01 0.01 53 1017.0
20260905233940 75 29 0.0 3.0 0.00 0.01 0.01 53 1017.0
20260905233436 74 231 1.0 3.0 0.00 0.01 0.01 52 1017.0
20260905232934 73 110 2.0 3.0 0.00 0.01 0.01 53 1017.1
20260905232428 72 115 2.0 4.0 0.00 0.01 0.01 53 1017.1
20260905231926 72 117 2.0 4.0 0.00 0.01 0.01 54 1017.1
20260905231427 72 24 2.0 4.0 0.00 0.01 0.01 53 1017.2
20260905230924 73 15 1.0 4.0 0.00 0.01 0.01 52 1017.2
20260905230442 74 278 1.0 4.0 0.00 0.01 0.01 53 1017.2
20260905225947 74 263 1.0 4.0 0.00 0.03 0.01 54 1017.3
20260905225444 74 253 2.0 4.0 0.00 0.03 0.01 55 1017.5
20260905224941 74 256 1.0 4.0 0.00 0.03 0.01 54 1017.5
20260905224419 73 41 1.0 4.0 0.00 0.03 0.01 55 1017.5
20260905223936 72 249 1.0 3.0 0.00 0.03 0.01 55 1017.5
20260905223437 72 272 0.0 4.0 0.00 0.03 0.01 55 1017.7
20260905222956 72 261 2.0 4.0 0.00 0.03 0.01 56 1017.6
20260905222501 72 2 1.0 3.0 0.00 0.03 0.01 57 1017.6
20260905221937 72 225 1.0 3.0 0.00 0.03 0.01 57 1017.7
20260905221435 71 269 0.0 2.0 0.00 0.03 0.01 58 1017.7
20260905220932 71 276 0.0 3.0 0.00 0.03 0.01 58 1017.7
20260905220430 70 160 0.0 3.0 0.00 0.03 0.01 58 1017.8
20260905215920 70 71 1.0 4.0 0.00 0.20 0.01 57 1017.8
20260905215447 70 93 2.0 4.0 0.00 0.20 0.01 56 1017.8
20260905214925 71 86 1.0 3.0 0.00 0.20 0.01 56 1017.9